Tracking 29892 objects as of 21-Nov-2024
HD Live streaming from Space Station
objects crossing your sky now

STARLINK-30344

Track STARLINK-30344 now!
10-day predictions
STARLINK-30344 is classified as:


NORAD ID: 57737
Int'l Code: 2023-131F
Perigee: 565.2 km
Apogee: 567.0 km
Inclination: 43.0 °
Period: 95.8 minutes
Semi major axis: 6937 km
RCS: Unknown
Launch date: September 1, 2023
Source: United States (US)
Launch site: AIR FORCE EASTERN TEST RANGE (AFETR)
Your satellite tracking list
Your tracking list is empty




NASA's NSSDC Master Catalog

Two Line Element Set (TLE):
1 57737U 23131F   24325.78475305  .00004893  00000-0  37660-3 0  9993
2 57737  43.0040 227.1138 0001305 265.1705  94.8988 15.02579746 68636
Source of the keplerian elements: AFSPC